{"data":{"norad_id":65291,"intl_designator":"2025-184U","name":"STARLINK-35002","alt_names":[],"object_type":"PAYLOAD","status":"ACTIVE","operator":null,"country":"US","launch_date":"2025-08-22","launch_site_code":"AFWTR","launch_vehicle":null,"mission":null,"orbit_class":"UNKNOWN","rcs_meters":null,"size_class":null,"mass_kg":null,"dimensions":null,"purposes":["comms"],"wikipedia_slug":null,"has_3d_model":false,"image_url":null,"decayed_at":null,"tle_current":{"epoch":"2026-05-25T02:24:09.662112Z","epoch_age_seconds":66305,"freshness":"FRESH","line1":"1 65291U 25184U   26145.10011183  .00002463  00000+0  17469-3 0  9990","line2":"2 65291  97.4486 197.5363 0001438 130.0788 230.0565 15.05649797 42796","mean_motion":15.05649797,"eccentricity":0.0001438,"inclination_deg":97.4486,"raan_deg":197.5363,"arg_perigee_deg":130.0788,"mean_anomaly_deg":230.0565,"bstar":0.00017469,"rev_number":4279,"period_min":95.639769810297,"perigee_km":548.51558082746,"apogee_km":550.50797261565,"semimajor_km":6927.6487767216,"source":"CELESTRAK","updated_at":"2026-05-25T13:38:20.754403Z"}}}